Weather in Sennaya Guba

Russia / Republic of Karelia     61°59′50″N   35°13′28″E
temp.,
°C
wind,
m/s
gust,
m/s
humid.,
%
clouds,
%
prec.,
mm/h
press.,
hPa
HPBL,
m
6 august, fri
fri600:00+16ene676799 0.0 1018349
03:00+16ene796571 0.0 1017323
06:00+15e8107068 0.0 1018371
09:00+16e686477 0.0 1018541
12:00+17ne346199 0.0 1018190
15:00+18ene355898 0.0 101779
18:00+16ssw447191 0.0 1017184
21:00+16ese116635 0.0 1018207
7 august, sat
sat700:00+15e710748 0.0 1018580
03:00+15e8137795 0.0 1018661
06:00+15e10127695 0.0 1017614
09:00+17e9127280 0.0 1017786
12:00+19e7107195 0.0 1016205
15:00+18ese101373100 0.0 1016514
18:00+19e91370100 0.0 1015408
21:00+18ese111474100 0.0 1015664
8 august, sun
sun800:00+15e121788100 1.6 1015680
03:00+16e121787100 2.1 1014855
06:00+15ese121689100 0.5 1013678
09:00+15e121390100 1.1 1013546
12:00+16ese101290100 2.0 1013593
15:00+15e91091100 3.6 1014510
18:00+15e6793100 0.4 1014435
21:00+15e559387 0.6 1014317
9 august, mon
mon900:00+15ne439491 0.1 1015278
03:00+15nne329382 0.2 1016219
06:00+15ne3393100 0.1 1016226
09:00+16ne119193 0.1 1016172
12:00+16se228894 0.0 1017160
15:00+18ese228216 0.0 1017124
18:00+18e338194 0.0 101781
21:00+19e557728 0.0 101650
10 august, tue
tue1000:00+18e71287100 0.5 1016172
03:00+18s6891100 0.6 1016151
06:00+18ssw569182 0.0 1016137
09:00+17ssw459245 0.0 1017157
12:00+18sw338615 0.0 101831
15:00+19se338037 0.0 101831
18:00+19sse448124 0.0 101867
21:00+19sse22805 0.0 101812